Hourly Data Report for September 28, 2017

All times are specified in Local Standard Time (LST). Add 1 hour to adjust for Daylight Saving Time where and when it is observed.

GJOA HAVEN A
NUNAVUT

68°38'08.000" N
95°51'01.000" W
46.90 m
2302337
71597
YHK

Download Data

Hourly Data (September 2017)
Hourly Data Report for September 28, 2017
Temp Definition
°C
Dew Point Temp Definition
°C
Rel Hum Definition
%
Wind Dir Definition
10's deg

Wind Spd Definition
km/h
Visibility Definition
km
Stn Press Definition
kPa
Hmdx Definition


Wind Chill Definition


Weather Definition


TIME
00:00 Legend Double Dagger -2.3 -4.6 84 31 41 16.1 101.15   -11 LegendNANA
01:00 Legend Double Dagger -2.5 -4.5 86 32 39 16.1 101.24   -11 LegendNANA
02:00 Legend Double Dagger -2.7 -4.9 85 32 34 16.1 101.34   -10 LegendNANA
03:00 Legend Double Dagger -2.9 -5.1 85 32 35 16.1 101.41   -11 LegendNANA
04:00 Legend Double Dagger -2.9 -4.2 91 32 30 16.1 101.47   -10 LegendNANA
05:00 Legend Double Dagger -3.3 -5.2 87 34 34 16.1 101.53   -11 LegendNANA
06:00 Legend Double Dagger -3.5 -5.4 87 33 28 16.1 101.58   -11 LegendNANA
07:00 Legend Double Dagger -4.1 -5.7 89 33 28 16.1 101.65   -12 LegendNANA
08:00 Legend Double Dagger -4.4 -6.6 85 33 34 16.1 101.70   -13 LegendNANA
09:00 Legend Double Dagger -4.3 -6.6 84 34 34 16.1 101.74   -13 LegendNANA
10:00 Legend Double Dagger -4.0 -6.6 82 32 26 16.1 101.77   -11 LegendNANA
11:00 Legend Double Dagger -3.9 -6.5 82 32 26 16.1 101.77   -11 LegendNANA
12:00 Legend Double Dagger -3.6 -6.9 78 30 30 16.1 101.80   -11 LegendNANA
13:00 Legend Double Dagger -3.7 -7.0 78 30 18 16.1 101.80   -10 LegendNANA
14:00 Legend Double Dagger -3.4 -6.2 81 29 18 16.1 101.77   -9 LegendNANA
15:00 Legend Double Dagger -3.5 -6.7 78 28 21 16.1 101.74   -10 LegendNANA
16:00 Legend Double Dagger -3.9 -7.0 79 27 21 16.1 101.70   -10 LegendNANA
17:00 Legend Double Dagger -4.6 -7.4 81 27 13 16.1 101.62   -10 LegendNANA
18:00 Legend Double Dagger -4.5 -7.1 82 24 18 16.1 101.55   -11 LegendNANA
19:00 Legend Double Dagger -4.1 -6.3 85 25 15 16.1 101.46   -9 LegendNANA
20:00 Legend Double Dagger -3.3 -6.6 78 21 21 16.1 101.35   -10 LegendNANA
21:00 Legend Double Dagger -2.8 -6.0 79 21 26 16.1 101.21   -10 LegendNANA
22:00 Legend Double Dagger -2.8 -6.1 78 20 32 16.1 101.10   -10 LegendNANA
23:00 Legend Double Dagger -2.1 -4.7 83 20 28 16.1 100.98   -9 LegendNANA

Notes on Data Quality.

Legend

  • E = Estimated
  • M = Missing
  • NA = Not Available
  • ‡ = Partner data that is not subject to review by the National Climate Archives
Date modified: